owner,sensor,date,latitude,longitude,sea_surface_height_above_sea_level,qcFlag 
TCOON,ioos:station:TCOON:057:1,2016-01-01T00:18:00Z,28.4460,-96.3961,3.862,1111122 
TCOON,ioos:station:TCOON:057:1,2016-01-01T01:18:00Z,28.4460,-96.3961,3.836,1111122 
TCOON,ioos:station:TCOON:057:1,2016-01-01T02:18:00Z,28.4460,-96.3961,3.855,1111122 
TCOON,ioos:station:TCOON:057:1,2016-01-01T03:18:00Z,28.4460,-96.3961,3.878,1111122 
TCOON,ioos:station:TCOON:057:1,2016-01-01T04:18:00Z,28.4460,-96.3961,3.907,1111122 
TCOON,ioos:station:TCOON:057:1,2016-01-01T05:18:00Z,28.4460,-96.3961,3.889,1111122 
TCOON,ioos:station:TCOON:057:1,2016-01-01T06:18:00Z,28.4460,-96.3961,3.899,1111122 
TCOON,ioos:station:TCOON:057:1,2016-01-01T07:18:00Z,28.4460,-96.3961,3.856,1111122 
TCOON,ioos:station:TCOON:057:1,2016-01-01T08:18:00Z,28.4460,-96.3961,3.862,1111122 
TCOON,ioos:station:TCOON:057:1,2016-01-01T09:24:00Z,28.4460,-96.3961,3.855,1111122 
TCOON,ioos:station:TCOON:057:1,2016-01-01T10:18:00Z,28.4460,-96.3961,3.81,1111122 
TCOON,ioos:station:TCOON:057:1,2016-01-01T11:18:00Z,28.4460,-96.3961,3.782,1111122 
TCOON,ioos:station:TCOON:057:1,2016-01-01T12:18:00Z,28.4460,-96.3961,3.776,1111122 
TCOON,ioos:station:TCOON:057:1,2016-01-01T13:18:00Z,28.4460,-96.3961,3.78,1111122 
TCOON,ioos:station:TCOON:057:1,2016-01-01T14:18:00Z,28.4460,-96.3961,3.771,1111122 
TCOON,ioos:station:TCOON:057:1,2016-01-01T15:18:00Z,28.4460,-96.3961,3.753,1111122 
TCOON,ioos:station:TCOON:057:1,2016-01-01T16:18:00Z,28.4460,-96.3961,3.76,1111122 
TCOON,ioos:station:TCOON:057:1,2016-01-01T17:18:00Z,28.4460,-96.3961,3.753,1111122 
TCOON,ioos:station:TCOON:057:1,2016-01-01T18:18:00Z,28.4460,-96.3961,3.744,1111122 
TCOON,ioos:station:TCOON:057:1,2016-01-02T21:24:00Z,28.4460,-96.3961,3.76,1111122 
TCOON,ioos:station:TCOON:057:1,2016-01-02T22:18:00Z,28.4460,-96.3961,3.787,1111122 
TCOON,ioos:station:TCOON:057:1,2016-01-02T23:12:00Z,28.4460,-96.3961,3.786,1111122 
TCOON,ioos:station:TCOON:057:1,2016-01-03T00:18:00Z,28.4460,-96.3961,3.811,1111122 
TCOON,ioos:station:TCOON:057:1,2016-01-03T01:18:00Z,28.4460,-96.3961,3.804,1111122 
TCOON,ioos:station:TCOON:057:1,2016-01-03T02:18:00Z,28.4460,-96.3961,3.839,1111122 
TCOON,ioos:station:TCOON:057:1,2016-01-03T03:18:00Z,28.4460,-96.3961,3.871,1111122 
TCOON,ioos:station:TCOON:057:1,2016-01-03T04:18:00Z,28.4460,-96.3961,3.87,1111122 
TCOON,ioos:station:TCOON:057:1,2016-01-03T05:18:00Z,28.4460,-96.3961,3.855,1111122 
TCOON,ioos:station:TCOON:057:1,2016-01-03T06:18:00Z,28.4460,-96.3961,3.835,1111122 
TCOON,ioos:station:TCOON:057:1,2016-01-03T07:18:00Z,28.4460,-96.3961,3.839,1111122 
TCOON,ioos:station:TCOON:057:1,2016-01-03T08:18:00Z,28.4460,-96.3961,3.839,1111122 
TCOON,ioos:station:TCOON:057:1,2016-01-03T09:24:00Z,28.4460,-96.3961,3.809,1111122 
TCOON,ioos:station:TCOON:057:1,2016-01-03T10:18:00Z,28.4460,-96.3961,3.785,1111122 
TCOON,ioos:station:TCOON:057:1,2016-01-03T11:18:00Z,28.4460,-96.3961,3.74,1111122 
TCOON,ioos:station:TCOON:057:1,2016-01-03T12:18:00Z,28.4460,-96.3961,3.738,1111122 
TCOON,ioos:station:TCOON:057:1,2016-01-03T13:18:00Z,28.4460,-96.3961,3.713,1111122 
TCOON,ioos:station:TCOON:057:1,2016-01-03T14:18:00Z,28.4460,-96.3961,3.7,1111122 
TCOON,ioos:station:TCOON:057:1,2016-01-03T15:18:00Z,28.4460,-96.3961,3.703,1111122 
TCOON,ioos:station:TCOON:057:1,2016-01-03T16:18:00Z,28.4460,-96.3961,3.696,1111122 
TCOON,ioos:station:TCOON:057:1,2016-01-03T17:18:00Z,28.4460,-96.3961,3.714,1111122 
TCOON,ioos:station:TCOON:057:1,2016-01-03T18:18:00Z,28.4460,-96.3961,3.739,1111122 
TCOON,ioos:station:TCOON:057:1,2016-01-03T19:18:00Z,28.4460,-96.3961,3.741,1111122 
TCOON,ioos:station:TCOON:057:1,2016-01-03T20:18:00Z,28.4460,-96.3961,3.771,1111122 
TCOON,ioos:station:TCOON:057:1,2016-01-03T21:18:00Z,28.4460,-96.3961,3.768,1111122 
TCOON,ioos:station:TCOON:057:1,2016-01-03T22:18:00Z,28.4460,-96.3961,3.792,1111122 
TCOON,ioos:station:TCOON:057:1,2016-01-03T23:18:00Z,28.4460,-96.3961,3.779,1111122 
TCOON,ioos:station:TCOON:057:1,2016-01-04T00:18:00Z,28.4460,-96.3961,3.767,1111122 
TCOON,ioos:station:TCOON:057:1,2016-01-04T01:18:00Z,28.4460,-96.3961,3.801,1111122 
TCOON,ioos:station:TCOON:057:1,2016-01-04T02:18:00Z,28.4460,-96.3961,3.783,1111122 
TCOON,ioos:station:TCOON:057:1,2016-01-04T03:42:00Z,28.4460,-96.3961,3.759,1111122 
TCOON,ioos:station:TCOON:057:1,2016-01-04T04:18:00Z,28.4460,-96.3961,3.769,1111122 
TCOON,ioos:station:TCOON:057:1,2016-01-04T05:12:00Z,28.4460,-96.3961,3.758,1111122 
TCOON,ioos:station:TCOON:057:1,2016-01-04T06:18:00Z,28.4460,-96.3961,3.744,1111122 
TCOON,ioos:station:TCOON:057:1,2016-01-04T07:18:00Z,28.4460,-96.3961,3.737,1111122 
TCOON,ioos:station:TCOON:057:1,2016-01-04T08:18:00Z,28.4460,-96.3961,3.703,1111122 
TCOON,ioos:station:TCOON:057:1,2016-01-04T09:24:00Z,28.4460,-96.3961,3.673,1111122 
TCOON,ioos:station:TCOON:057:1,2016-01-04T10:18:00Z,28.4460,-96.3961,3.648,1111122 
TCOON,ioos:station:TCOON:057:1,2016-01-04T11:18:00Z,28.4460,-96.3961,3.624,1111122 
TCOON,ioos:station:TCOON:057:1,2016-01-04T12:12:00Z,28.4460,-96.3961,3.602,1111122 
TCOON,ioos:station:TCOON:057:1,2016-01-04T13:18:00Z,28.4460,-96.3961,3.593,1111122 
TCOON,ioos:station:TCOON:057:1,2016-01-04T14:18:00Z,28.4460,-96.3961,3.598,1111122 
TCOON,ioos:station:TCOON:057:1,2016-01-04T15:18:00Z,28.4460,-96.3961,3.613,1111122 
TCOON,ioos:station:TCOON:057:1,2016-01-04T16:18:00Z,28.4460,-96.3961,3.601,1111122 
TCOON,ioos:station:TCOON:057:1,2016-01-04T17:18:00Z,28.4460,-96.3961,3.599,1111122 
TCOON,ioos:station:TCOON:057:1,2016-01-04T18:18:00Z,28.4460,-96.3961,3.6,1111122 
TCOON,ioos:station:TCOON:057:1,2016-01-04T19:18:00Z,28.4460,-96.3961,3.598,1111122 
TCOON,ioos:station:TCOON:057:1,2016-01-04T20:18:00Z,28.4460,-96.3961,3.641,1111122 
TCOON,ioos:station:TCOON:057:1,2016-01-04T21:18:00Z,28.4460,-96.3961,3.669,1111122 
TCOON,ioos:station:TCOON:057:1,2016-01-04T22:12:00Z,28.4460,-96.3961,3.69,1111122 
TCOON,ioos:station:TCOON:057:1,2016-01-04T23:18:00Z,28.4460,-96.3961,3.73,1111122 
TCOON,ioos:station:TCOON:057:1,2016-01-05T00:18:00Z,28.4460,-96.3961,3.743,1111122 
TCOON,ioos:station:TCOON:057:1,2016-01-05T01:18:00Z,28.4460,-96.3961,3.76,1111122 
TCOON,ioos:station:TCOON:057:1,2016-01-05T02:18:00Z,28.4460,-96.3961,3.776,1111122 
TCOON,ioos:station:TCOON:057:1,2016-01-05T03:18:00Z,28.4460,-96.3961,3.792,1111122 
TCOON,ioos:station:TCOON:057:1,2016-01-05T04:18:00Z,28.4460,-96.3961,3.792,1111122 
TCOON,ioos:station:TCOON:057:1,2016-01-05T05:18:00Z,28.4460,-96.3961,3.801,1111122 
TCOON,ioos:station:TCOON:057:1,2016-01-05T06:12:00Z,28.4460,-96.3961,3.8,1111122 
TCOON,ioos:station:TCOON:057:1,2016-01-05T07:18:00Z,28.4460,-96.3961,3.781,1111122 
TCOON,ioos:station:TCOON:057:1,2016-01-05T08:18:00Z,28.4460,-96.3961,3.763,1111122 
TCOON,ioos:station:TCOON:057:1,2016-01-05T10:06:00Z,28.4460,-96.3961,3.742,1111122 
TCOON,ioos:station:TCOON:057:1,2016-01-05T11:18:00Z,28.4460,-96.3961,3.713,1111122 
TCOON,ioos:station:TCOON:057:1,2016-01-05T12:12:00Z,28.4460,-96.3961,3.701,1111122 
TCOON,ioos:station:TCOON:057:1,2016-01-05T13:18:00Z,28.4460,-96.3961,3.666,1111122 
TCOON,ioos:station:TCOON:057:1,2016-01-05T14:18:00Z,28.4460,-96.3961,3.639,1111122 
TCOON,ioos:station:TCOON:057:1,2016-01-05T15:18:00Z,28.4460,-96.3961,3.651,1111122 
TCOON,ioos:station:TCOON:057:1,2016-01-05T16:18:00Z,28.4460,-96.3961,3.663,1111122 
TCOON,ioos:station:TCOON:057:1,2016-01-06T15:18:00Z,28.4460,-96.3961,3.747,1111122 
TCOON,ioos:station:TCOON:057:1,2016-01-06T16:18:00Z,28.4460,-96.3961,3.746,1111122 
TCOON,ioos:station:TCOON:057:1,2016-01-06T17:18:00Z,28.4460,-96.3961,3.777,1111122 
TCOON,ioos:station:TCOON:057:1,2016-01-06T18:18:00Z,28.4460,-96.3961,3.787,1111122 
TCOON,ioos:station:TCOON:057:1,2016-01-06T19:18:00Z,28.4460,-96.3961,3.811,1111122 
TCOON,ioos:station:TCOON:057:1,2016-01-06T20:18:00Z,28.4460,-96.3961,3.836,1111122 
TCOON,ioos:station:TCOON:057:1,2016-01-06T21:18:00Z,28.4460,-96.3961,3.876,1111122 
TCOON,ioos:station:TCOON:057:1,2016-01-06T22:12:00Z,28.4460,-96.3961,3.894,1111122 
TCOON,ioos:station:TCOON:057:1,2016-01-06T23:18:00Z,28.4460,-96.3961,3.928,1111122 
TCOON,ioos:station:TCOON:057:1,2016-01-07T00:18:00Z,28.4460,-96.3961,3.944,1111122 
TCOON,ioos:station:TCOON:057:1,2016-01-07T01:18:00Z,28.4460,-96.3961,3.976,1111122 
TCOON,ioos:station:TCOON:057:1,2016-01-07T02:18:00Z,28.4460,-96.3961,3.994,1111122 
TCOON,ioos:station:TCOON:057:1,2016-01-07T03:18:00Z,28.4460,-96.3961,4.042,1111122 
TCOON,ioos:station:TCOON:057:1,2016-01-07T04:18:00Z,28.4460,-96.3961,4.033,1111122 
TCOON,ioos:station:TCOON:057:1,2016-01-07T05:18:00Z,28.4460,-96.3961,4.04,1111122 
TCOON,ioos:station:TCOON:057:1,2016-01-07T06:18:00Z,28.4460,-96.3961,4.081,1111122 
TCOON,ioos:station:TCOON:057:1,2016-01-07T07:18:00Z,28.4460,-96.3961,4.049,1111122 
TCOON,ioos:station:TCOON:057:1,2016-01-07T08:18:00Z,28.4460,-96.3961,4.02,1111122 
TCOON,ioos:station:TCOON:057:1,2016-01-07T09:24:00Z,28.4460,-96.3961,3.991,1111122 
TCOON,ioos:station:TCOON:057:1,2016-01-07T10:18:00Z,28.4460,-96.3961,3.967,1111122 
TCOON,ioos:station:TCOON:057:1,2016-01-07T11:18:00Z,28.4460,-96.3961,3.934,1111122 
TCOON,ioos:station:TCOON:057:1,2016-01-07T12:30:00Z,28.4460,-96.3961,3.901,1111122 
TCOON,ioos:station:TCOON:057:1,2016-01-07T13:18:00Z,28.4460,-96.3961,3.878,1111122 
TCOON,ioos:station:TCOON:057:1,2016-01-07T14:18:00Z,28.4460,-96.3961,3.854,1111122 
TCOON,ioos:station:TCOON:057:1,2016-01-07T15:18:00Z,28.4460,-96.3961,3.824,1111122 
TCOON,ioos:station:TCOON:057:1,2016-01-07T16:18:00Z,28.4460,-96.3961,3.817,1111122 
TCOON,ioos:station:TCOON:057:1,2016-01-07T17:18:00Z,28.4460,-96.3961,3.819,1111122 
TCOON,ioos:station:TCOON:057:1,2016-01-07T18:18:00Z,28.4460,-96.3961,3.838,1111122 
TCOON,ioos:station:TCOON:057:1,2016-01-07T19:18:00Z,28.4460,-96.3961,3.854,1111122 
TCOON,ioos:station:TCOON:057:1,2016-01-07T20:18:00Z,28.4460,-96.3961,3.889,1111122 
TCOON,ioos:station:TCOON:057:1,2016-01-07T21:18:00Z,28.4460,-96.3961,3.919,1111122 
TCOON,ioos:station:TCOON:057:1,2016-01-07T22:18:00Z,28.4460,-96.3961,3.944,1111122 
TCOON,ioos:station:TCOON:057:1,2016-01-07T23:18:00Z,28.4460,-96.3961,3.969,1111122 
TCOON,ioos:station:TCOON:057:1,2016-01-08T00:18:00Z,28.4460,-96.3961,3.997,1111122 
TCOON,ioos:station:TCOON:057:1,2016-01-08T01:18:00Z,28.4460,-96.3961,4.019,1111122 
TCOON,ioos:station:TCOON:057:1,2016-01-08T02:18:00Z,28.4460,-96.3961,4.034,1111122 
TCOON,ioos:station:TCOON:057:1,2016-01-08T03:18:00Z,28.4460,-96.3961,4.036,1111122 
TCOON,ioos:station:TCOON:057:1,2016-01-08T04:18:00Z,28.4460,-96.3961,4.043,1111122 
TCOON,ioos:station:TCOON:057:1,2016-01-08T05:18:00Z,28.4460,-96.3961,4.04,1111122 
TCOON,ioos:station:TCOON:057:1,2016-01-08T06:24:00Z,28.4460,-96.3961,4.018,1111122 
TCOON,ioos:station:TCOON:057:1,2016-01-08T07:24:00Z,28.4460,-96.3961,4.001,1111122 
TCOON,ioos:station:TCOON:057:1,2016-01-08T08:18:00Z,28.4460,-96.3961,3.983,1111122 
TCOON,ioos:station:TCOON:057:1,2016-01-08T09:24:00Z,28.4460,-96.3961,3.957,1111122 
TCOON,ioos:station:TCOON:057:1,2016-01-08T10:18:00Z,28.4460,-96.3961,3.924,1111122 
TCOON,ioos:station:TCOON:057:1,2016-01-08T11:18:00Z,28.4460,-96.3961,3.892,1111122 
TCOON,ioos:station:TCOON:057:1,2016-01-08T12:18:00Z,28.4460,-96.3961,3.851,1111122 
TCOON,ioos:station:TCOON:057:1,2016-01-08T13:18:00Z,28.4460,-96.3961,3.821,1111122 
TCOON,ioos:station:TCOON:057:1,2016-01-08T14:18:00Z,28.4460,-96.3961,3.794,1111122 
TCOON,ioos:station:TCOON:057:1,2016-01-08T15:18:00Z,28.4460,-96.3961,3.764,1111122 
TCOON,ioos:station:TCOON:057:1,2016-01-08T16:18:00Z,28.4460,-96.3961,3.746,1111122 
TCOON,ioos:station:TCOON:057:1,2016-01-08T17:18:00Z,28.4460,-96.3961,3.743,1111122 
TCOON,ioos:station:TCOON:057:1,2016-01-08T18:18:00Z,28.4460,-96.3961,3.751,1111122 
TCOON,ioos:station:TCOON:057:1,2016-01-08T19:18:00Z,28.4460,-96.3961,3.771,1111122 
TCOON,ioos:station:TCOON:057:1,2016-01-08T20:18:00Z,28.4460,-96.3961,3.808,1111122 
TCOON,ioos:station:TCOON:057:1,2016-01-08T21:18:00Z,28.4460,-96.3961,3.825,1111122 
TCOON,ioos:station:TCOON:057:1,2016-01-08T22:18:00Z,28.4460,-96.3961,3.878,1111122 
TCOON,ioos:station:TCOON:057:1,2016-01-08T23:18:00Z,28.4460,-96.3961,3.892,1111122 
TCOON,ioos:station:TCOON:057:1,2016-01-09T00:18:00Z,28.4460,-96.3961,3.92,1111122 
TCOON,ioos:station:TCOON:057:1,2016-01-09T01:18:00Z,28.4460,-96.3961,3.941,1111122 
TCOON,ioos:station:TCOON:057:1,2016-01-09T02:18:00Z,28.4460,-96.3961,3.976,1111122 
TCOON,ioos:station:TCOON:057:1,2016-01-09T03:18:00Z,28.4460,-96.3961,3.98,1111122 
TCOON,ioos:station:TCOON:057:1,2016-01-09T04:18:00Z,28.4460,-96.3961,3.998,1111122 
TCOON,ioos:station:TCOON:057:1,2016-01-09T05:18:00Z,28.4460,-96.3961,4.012,1111122 
TCOON,ioos:station:TCOON:057:1,2016-01-09T06:18:00Z,28.4460,-96.3961,4.012,1111122 
TCOON,ioos:station:TCOON:057:1,2016-01-09T07:18:00Z,28.4460,-96.3961,3.977,1111122 
TCOON,ioos:station:TCOON:057:1,2016-01-09T08:18:00Z,28.4460,-96.3961,3.97,1111122 
TCOON,ioos:station:TCOON:057:1,2016-01-09T09:24:00Z,28.4460,-96.3961,3.948,1111122 
TCOON,ioos:station:TCOON:057:1,2016-01-09T10:18:00Z,28.4460,-96.3961,3.918,1111122 
TCOON,ioos:station:TCOON:057:1,2016-01-09T11:18:00Z,28.4460,-96.3961,3.87,1111122 
TCOON,ioos:station:TCOON:057:1,2016-01-09T12:18:00Z,28.4460,-96.3961,3.852,1111122 
TCOON,ioos:station:TCOON:057:1,2016-01-09T13:18:00Z,28.4460,-96.3961,3.8,1111122 
TCOON,ioos:station:TCOON:057:1,2016-01-09T14:18:00Z,28.4460,-96.3961,3.747,1111122 
TCOON,ioos:station:TCOON:057:1,2016-01-09T15:18:00Z,28.4460,-96.3961,3.702,1111122 
TCOON,ioos:station:TCOON:057:1,2016-01-09T16:18:00Z,28.4460,-96.3961,3.694,1111122 
TCOON,ioos:station:TCOON:057:1,2016-01-09T17:18:00Z,28.4460,-96.3961,3.699,1111122 
TCOON,ioos:station:TCOON:057:1,2016-01-09T18:24:00Z,28.4460,-96.3961,3.677,1111122 
TCOON,ioos:station:TCOON:057:1,2016-01-09T19:18:00Z,28.4460,-96.3961,3.689,1111122 
TCOON,ioos:station:TCOON:057:1,2016-01-09T20:18:00Z,28.4460,-96.3961,3.704,1111122 
TCOON,ioos:station:TCOON:057:1,2016-01-09T21:18:00Z,28.4460,-96.3961,3.745,1111122 
TCOON,ioos:station:TCOON:057:1,2016-01-09T22:18:00Z,28.4460,-96.3961,3.754,1111122 
TCOON,ioos:station:TCOON:057:1,2016-01-09T23:18:00Z,28.4460,-96.3961,3.813,1111122 
TCOON,ioos:station:TCOON:057:1,2016-01-10T00:18:00Z,28.4460,-96.3961,3.879,1111122 
TCOON,ioos:station:TCOON:057:1,2016-01-10T01:18:00Z,28.4460,-96.3961,3.882,1111122 
TCOON,ioos:station:TCOON:057:1,2016-01-10T02:18:00Z,28.4460,-96.3961,3.866,1111122 
TCOON,ioos:station:TCOON:057:1,2016-01-10T03:18:00Z,28.4460,-96.3961,3.788,1111122 
TCOON,ioos:station:TCOON:057:1,2016-01-10T04:18:00Z,28.4460,-96.3961,3.736,1111122 
TCOON,ioos:station:TCOON:057:1,2016-01-10T05:18:00Z,28.4460,-96.3961,3.709,1111122 
TCOON,ioos:station:TCOON:057:1,2016-01-10T06:18:00Z,28.4460,-96.3961,3.699,1111122 
TCOON,ioos:station:TCOON:057:1,2016-01-10T07:18:00Z,28.4460,-96.3961,3.709,1111122 
TCOON,ioos:station:TCOON:057:1,2016-01-10T08:18:00Z,28.4460,-96.3961,3.64,1111122 
TCOON,ioos:station:TCOON:057:1,2016-01-10T09:24:00Z,28.4460,-96.3961,3.625,1111122 
TCOON,ioos:station:TCOON:057:1,2016-01-10T10:18:00Z,28.4460,-96.3961,3.593,1111122 
TCOON,ioos:station:TCOON:057:1,2016-01-10T11:18:00Z,28.4460,-96.3961,3.555,1111122 
TCOON,ioos:station:TCOON:057:1,2016-01-10T12:18:00Z,28.4460,-96.3961,3.505,1111122 
TCOON,ioos:station:TCOON:057:1,2016-01-10T13:18:00Z,28.4460,-96.3961,3.469,1111122 
TCOON,ioos:station:TCOON:057:1,2016-01-10T14:18:00Z,28.4460,-96.3961,3.418,1111122 
TCOON,ioos:station:TCOON:057:1,2016-01-10T15:18:00Z,28.4460,-96.3961,3.372,1111122 
TCOON,ioos:station:TCOON:057:1,2016-01-10T16:18:00Z,28.4460,-96.3961,3.349,1111122 
TCOON,ioos:station:TCOON:057:1,2016-01-10T17:24:00Z,28.4460,-96.3961,3.341,1111122 
TCOON,ioos:station:TCOON:057:1,2016-01-10T18:24:00Z,28.4460,-96.3961,3.329,1111122 
TCOON,ioos:station:TCOON:057:1,2016-01-10T19:24:00Z,28.4460,-96.3961,3.331,1111122 
TCOON,ioos:station:TCOON:057:1,2016-01-10T20:24:00Z,28.4460,-96.3961,3.39,1111122 
TCOON,ioos:station:TCOON:057:1,2016-01-10T21:18:00Z,28.4460,-96.3961,3.413,1111122 
TCOON,ioos:station:TCOON:057:1,2016-01-10T22:18:00Z,28.4460,-96.3961,3.454,1111122 
TCOON,ioos:station:TCOON:057:1,2016-01-10T23:18:00Z,28.4460,-96.3961,3.488,1111122 
TCOON,ioos:station:TCOON:057:1,2016-01-11T00:18:00Z,28.4460,-96.3961,3.524,1111122 
TCOON,ioos:station:TCOON:057:1,2016-01-11T01:18:00Z,28.4460,-96.3961,3.579,1111122 
TCOON,ioos:station:TCOON:057:1,2016-01-11T02:18:00Z,28.4460,-96.3961,3.608,1111122 
TCOON,ioos:station:TCOON:057:1,2016-01-11T03:24:00Z,28.4460,-96.3961,3.631,1111122 
TCOON,ioos:station:TCOON:057:1,2016-01-11T04:18:00Z,28.4460,-96.3961,3.649,1111122 
TCOON,ioos:station:TCOON:057:1,2016-01-11T05:18:00Z,28.4460,-96.3961,3.653,1111122 
TCOON,ioos:station:TCOON:057:1,2016-01-11T06:18:00Z,28.4460,-96.3961,3.661,1111122 
TCOON,ioos:station:TCOON:057:1,2016-01-11T07:18:00Z,28.4460,-96.3961,3.676,1111122 
TCOON,ioos:station:TCOON:057:1,2016-01-11T08:18:00Z,28.4460,-96.3961,3.676,1111122 
TCOON,ioos:station:TCOON:057:1,2016-01-11T09:24:00Z,28.4460,-96.3961,3.684,1111122 
TCOON,ioos:station:TCOON:057:1,2016-01-11T10:12:00Z,28.4460,-96.3961,3.68,1111122 
TCOON,ioos:station:TCOON:057:1,2016-01-11T11:18:00Z,28.4460,-96.3961,3.649,1111122 
TCOON,ioos:station:TCOON:057:1,2016-01-11T12:12:00Z,28.4460,-96.3961,3.634,1111122 
TCOON,ioos:station:TCOON:057:1,2016-01-11T13:18:00Z,28.4460,-96.3961,3.613,1111122 
TCOON,ioos:station:TCOON:057:1,2016-01-11T14:18:00Z,28.4460,-96.3961,3.574,1111122 
TCOON,ioos:station:TCOON:057:1,2016-01-11T15:18:00Z,28.4460,-96.3961,3.539,1111122 
TCOON,ioos:station:TCOON:057:1,2016-01-11T16:18:00Z,28.4460,-96.3961,3.5,1111122 
TCOON,ioos:station:TCOON:057:1,2016-01-11T17:18:00Z,28.4460,-96.3961,3.509,1111122 
TCOON,ioos:station:TCOON:057:1,2016-01-11T18:18:00Z,28.4460,-96.3961,3.498,1111122 
TCOON,ioos:station:TCOON:057:1,2016-01-11T19:18:00Z,28.4460,-96.3961,3.534,1111122 
TCOON,ioos:station:TCOON:057:1,2016-01-11T20:18:00Z,28.4460,-96.3961,3.569,1111122 
TCOON,ioos:station:TCOON:057:1,2016-01-11T21:24:00Z,28.4460,-96.3961,3.616,1111122 
TCOON,ioos:station:TCOON:057:1,2016-01-11T22:18:00Z,28.4460,-96.3961,3.646,1111122 
TCOON,ioos:station:TCOON:057:1,2016-01-11T23:18:00Z,28.4460,-96.3961,3.69,1111122 
TCOON,ioos:station:TCOON:057:1,2016-01-12T00:24:00Z,28.4460,-96.3961,3.735,1111122 
TCOON,ioos:station:TCOON:057:1,2016-01-12T01:18:00Z,28.4460,-96.3961,3.764,1111122 
TCOON,ioos:station:TCOON:057:1,2016-01-12T02:18:00Z,28.4460,-96.3961,3.792,1111122 
TCOON,ioos:station:TCOON:057:1,2016-01-12T03:18:00Z,28.4460,-96.3961,3.813,1111122 
TCOON,ioos:station:TCOON:057:1,2016-01-12T04:24:00Z,28.4460,-96.3961,3.826,1111122 
TCOON,ioos:station:TCOON:057:1,2016-01-12T05:18:00Z,28.4460,-96.3961,3.847,1111122 
TCOON,ioos:station:TCOON:057:1,2016-01-12T06:24:00Z,28.4460,-96.3961,3.862,1111122 
TCOON,ioos:station:TCOON:057:1,2016-01-12T07:18:00Z,28.4460,-96.3961,3.874,1111122 
TCOON,ioos:station:TCOON:057:1,2016-01-12T08:36:00Z,28.4460,-96.3961,3.88,1111122 
TCOON,ioos:station:TCOON:057:1,2016-01-12T09:30:00Z,28.4460,-96.3961,3.87,1111122 
TCOON,ioos:station:TCOON:057:1,2016-01-12T10:18:00Z,28.4460,-96.3961,3.867,1111122 
TCOON,ioos:station:TCOON:057:1,2016-01-12T11:18:00Z,28.4460,-96.3961,3.846,1111122 
TCOON,ioos:station:TCOON:057:1,2016-01-12T12:18:00Z,28.4460,-96.3961,3.816,1111122 
TCOON,ioos:station:TCOON:057:1,2016-01-12T13:30:00Z,28.4460,-96.3961,3.788,1111122 
TCOON,ioos:station:TCOON:057:1,2016-01-12T14:18:00Z,28.4460,-96.3961,3.761,1111122 
TCOON,ioos:station:TCOON:057:1,2016-01-12T15:30:00Z,28.4460,-96.3961,3.702,1111122 
TCOON,ioos:station:TCOON:057:1,2016-01-12T18:48:00Z,28.4460,-96.3961,3.596,1111122 
TCOON,ioos:station:TCOON:057:1,2016-01-13T00:36:00Z,28.4460,-96.3961,3.694,1111122 
TCOON,ioos:station:TCOON:057:1,2016-01-13T01:42:00Z,28.4460,-96.3961,3.732,1111122 
TCOON,ioos:station:TCOON:057:1,2016-01-13T03:18:00Z,28.4460,-96.3961,3.763,1111122 
TCOON,ioos:station:TCOON:057:1,2016-01-13T04:24:00Z,28.4460,-96.3961,3.774,1111122 
TCOON,ioos:station:TCOON:057:1,2016-01-13T05:18:00Z,28.4460,-96.3961,3.786,1111122 
TCOON,ioos:station:TCOON:057:1,2016-01-13T06:24:00Z,28.4460,-96.3961,3.778,1111122 
TCOON,ioos:station:TCOON:057:1,2016-01-13T07:18:00Z,28.4460,-96.3961,3.774,1111122 
TCOON,ioos:station:TCOON:057:1,2016-01-13T08:24:00Z,28.4460,-96.3961,3.775,1111122 
TCOON,ioos:station:TCOON:057:1,2016-01-13T09:24:00Z,28.4460,-96.3961,3.775,1111122 
TCOON,ioos:station:TCOON:057:1,2016-01-13T10:18:00Z,28.4460,-96.3961,3.761,1111122 
TCOON,ioos:station:TCOON:057:1,2016-01-13T11:30:00Z,28.4460,-96.3961,3.739,1111122 
TCOON,ioos:station:TCOON:057:1,2016-01-13T12:30:00Z,28.4460,-96.3961,3.719,1111122 
TCOON,ioos:station:TCOON:057:1,2016-01-13T13:30:00Z,28.4460,-96.3961,3.694,1111122 
TCOON,ioos:station:TCOON:057:1,2016-01-13T14:24:00Z,28.4460,-96.3961,3.675,1111122 
TCOON,ioos:station:TCOON:057:1,2016-01-13T15:18:00Z,28.4460,-96.3961,3.648,1111122 
TCOON,ioos:station:TCOON:057:1,2016-01-13T17:12:00Z,28.4460,-96.3961,3.591,1111122 
TCOON,ioos:station:TCOON:057:1,2016-01-13T18:18:00Z,28.4460,-96.3961,3.564,1111122 
TCOON,ioos:station:TCOON:057:1,2016-01-13T19:18:00Z,28.4460,-96.3961,3.536,1111122 
TCOON,ioos:station:TCOON:057:1,2016-01-13T20:18:00Z,28.4460,-96.3961,3.539,1111122 
TCOON,ioos:station:TCOON:057:1,2016-01-13T21:18:00Z,28.4460,-96.3961,3.574,1111122 
TCOON,ioos:station:TCOON:057:1,2016-01-13T22:24:00Z,28.4460,-96.3961,3.602,1111122 
TCOON,ioos:station:TCOON:057:1,2016-01-13T23:42:00Z,28.4460,-96.3961,3.636,1111122 
TCOON,ioos:station:TCOON:057:1,2016-01-14T00:30:00Z,28.4460,-96.3961,3.66,1111122 
TCOON,ioos:station:TCOON:057:1,2016-01-14T01:18:00Z,28.4460,-96.3961,3.691,1111122 
TCOON,ioos:station:TCOON:057:1,2016-01-14T02:18:00Z,28.4460,-96.3961,3.717,1111122 
TCOON,ioos:station:TCOON:057:1,2016-01-14T03:18:00Z,28.4460,-96.3961,3.738,1111122 
TCOON,ioos:station:TCOON:057:1,2016-01-14T04:18:00Z,28.4460,-96.3961,3.769,1111122 
TCOON,ioos:station:TCOON:057:1,2016-01-14T05:18:00Z,28.4460,-96.3961,3.787,1111122 
TCOON,ioos:station:TCOON:057:1,2016-01-14T06:18:00Z,28.4460,-96.3961,3.787,1111122 
TCOON,ioos:station:TCOON:057:1,2016-01-14T07:18:00Z,28.4460,-96.3961,3.802,1111122 
TCOON,ioos:station:TCOON:057:1,2016-01-14T08:18:00Z,28.4460,-96.3961,3.807,1111122 
TCOON,ioos:station:TCOON:057:1,2016-01-14T09:36:00Z,28.4460,-96.3961,3.842,1111122 
TCOON,ioos:station:TCOON:057:1,2016-01-14T10:18:00Z,28.4460,-96.3961,3.812,1111122 
TCOON,ioos:station:TCOON:057:1,2016-01-14T11:18:00Z,28.4460,-96.3961,3.843,1111122 
TCOON,ioos:station:TCOON:057:1,2016-01-14T12:18:00Z,28.4460,-96.3961,3.837,1111122 
TCOON,ioos:station:TCOON:057:1,2016-01-14T13:18:00Z,28.4460,-96.3961,3.844,1111122 
TCOON,ioos:station:TCOON:057:1,2016-01-14T14:18:00Z,28.4460,-96.3961,3.84,1111122 
TCOON,ioos:station:TCOON:057:1,2016-01-14T15:18:00Z,28.4460,-96.3961,3.811,1111122 
TCOON,ioos:station:TCOON:057:1,2016-01-14T16:18:00Z,28.4460,-96.3961,3.778,1111122 
TCOON,ioos:station:TCOON:057:1,2016-01-14T17:18:00Z,28.4460,-96.3961,3.777,1111122 
TCOON,ioos:station:TCOON:057:1,2016-01-14T18:18:00Z,28.4460,-96.3961,3.76,1111122 
TCOON,ioos:station:TCOON:057:1,2016-01-14T19:18:00Z,28.4460,-96.3961,3.75,1111122 
TCOON,ioos:station:TCOON:057:1,2016-01-14T20:18:00Z,28.4460,-96.3961,3.754,1111122 
TCOON,ioos:station:TCOON:057:1,2016-01-14T21:18:00Z,28.4460,-96.3961,3.745,1111122 
TCOON,ioos:station:TCOON:057:1,2016-01-14T22:18:00Z,28.4460,-96.3961,3.772,1111122 
TCOON,ioos:station:TCOON:057:1,2016-01-14T23:18:00Z,28.4460,-96.3961,3.781,1111122 
TCOON,ioos:station:TCOON:057:1,2016-01-15T00:18:00Z,28.4460,-96.3961,3.795,1111122 
TCOON,ioos:station:TCOON:057:1,2016-01-15T01:18:00Z,28.4460,-96.3961,3.828,1111122 
TCOON,ioos:station:TCOON:057:1,2016-01-15T02:18:00Z,28.4460,-96.3961,3.849,1111122 
TCOON,ioos:station:TCOON:057:1,2016-01-15T03:24:00Z,28.4460,-96.3961,3.863,1111122 
TCOON,ioos:station:TCOON:057:1,2016-01-15T04:18:00Z,28.4460,-96.3961,3.862,1111122 
TCOON,ioos:station:TCOON:057:1,2016-01-15T05:18:00Z,28.4460,-96.3961,3.877,1111122 
TCOON,ioos:station:TCOON:057:1,2016-01-15T06:18:00Z,28.4460,-96.3961,3.863,1111122 